Location: Ammerl�gen
(47.2167°N, 9.6000°E)
Time: 06:16:42
(UTC+00:00)

ISS - Pass Details

Date: 30 September 2021
Orbit: 417 x 423 km, 51.6° (Epoch: 16 October)

Event Time Altitude Azimuth Distance (km) Brightness Sun altitude
Rises 17:25:42 0° 289° (WNW) 2,364 1.8 -4.7°
Reaches altitude 10° 17:27:53 10° 297° (WNW) 1,500 0.3 -5.1°
Maximum altitude 17:31:05 41° 9° (N) 625 -2.9 -5.6°
Drops below altitude 10° 17:34:18 10° 81° (E) 1,500 -1.6 -6.1°
Enters shadow 17:34:43 - 84° (E) 1,659 -1.4 -6.2°
